Presure
190 183 180 174 173 127 169 182 165 173 170 165 174 174 173 188 177 182 178 181 155 170 185 191 192 189 187 178 178 193 186 181
192 193 193 181 180 173 179 174 172 173 170 168 159 163 161 173 177 184 188 159 172 184 192 192 190 193 187 192 195 196 191 193
171 186 181 183 183 170 161 175 174 168 165 158 146 146 184 178 186 159 193 194 152 185 177 186 192 188 197 190 193 194 191 195
169 170 168 163 152 179 169 185 187 184 168 144 151 180 183 150 144 168 135 145 183 148 188 160 163 191 193 190 202 199 212 211
181 177 165 174 102 126 178 179 173 160 179 174 135 182 184 136 176 173 138 181 179 186 188 185 152 185 162 217 229 233 205 240
131 171 183 181 178 131 171 172 171 169 176 155 170 169 113 124 151 185 190 190 190 174 198 221 232 229 224 246 243 242 240 266
132 148 121 173 172 170 173 162 165 170 172 127 172 167 143 183 190 192 198 211 222 224 219 224 251 245 243 235 277 287 274 283
138 144 95 184 170 174 166 161 124 131 121 182 165 145 191 205 197 208 219 223 211 235 219 248 254 247 277 274 287 306 324 321
162 127 184 182 179 177 127 130 177 136 143 185 180 151 203 216 216 223 141 206 230 224 263 256 291 289 287 286 304 311 292 289
179 176 172 158 175 116 183 173 157 184 186 203 211 214 211 201 213 207 199 218 245 264 250 298 289 293 294 303 305 298 269 268
177 178 183 151 109 123 183 191 191 206 202 204 206 185 178 153 229 207 243 266 270 276 294 298 307 304 308 304 302 286 260 256
139 149 182 136 185 193 148 205 209 200 202 209 205 196 207 221 250 261 265 256 288 306 302 308 305 304 283 287 267 270 255 256
179 113 184 192 209 208 202 202 205 214 221 202 222 231 236 241 187 255 285 281 297 312 310 311 303 278 292 314 294 385 371 360
155 120 190 164 195 211 206 196 202 205 215 229 229 236 237 254 266 276 298 310 320 316 299 296 316 345 405 447 439 395 425 416
191 206 200 207 204 206 207 208 219 224 229 235 233 234 243 276 291 307 316 304 278 307 336 388 436 441 431 420 414 407 401 393
118 204 201 191 213 210 216 224 228 227 224 227 238 252 311 308 326 319 289 303 345 426 435 426 429 422 417 407 395 388 381 375
203 200 207 212 207 213 226 227 231 230 241 250 254 268 318 326 289 280 347 414 417 414 420 407 398 399 387 386 381 372 367 360
209 201 204 197 221 231 235 236 235 253 260 277 319 318 297 282 332 369 405 417 413 411 404 400 391 384 378 369 363 362 356 346
202 200 212 215 226 216 230 239 247 278 293 317 315 280 319 345 414 421 422 415 409 398 394 388 377 365 355 356 356 350 340 345
Wind_Speed
31 35 36 39 42 46 46 38 50 44 46 49 52 52 49 62 55 61 56 60 55 52 66 67 65 64 65 57 57 67 64 57
38 37 38 40 39 42 40 45 45 46 49 50 51 55 56 63 64 68 70 55 60 73 74 73 70 73 70 75 77 77 73 74
44 44 42 43 44 42 51 48 50 49 49 49 51 52 67 67 73 55 78 78 58 70 60 72 81 73 88 76 80 80 80 83
49 50 51 47 49 53 51 58 61 64 56 49 52 77 79 55 51 70 49 58 80 62 83 65 70 87 90 92 97 93 98 95
48 50 52 51 29 46 62 64 63 50 72 69 44 83 85 51 80 85 61 85 84 92 92 90 71 94 74 103 103 102 89 99
37 54 58 58 59 50 65 68 69 67 78 60 73 73 49 49 69 98 99 99 98 73 102 107 110 107 103 106 105 104 97 105
38 45 44 61 62 64 71 64 68 75 80 43 81 77 57 94 98 99 102 106 107 109 109 112 110 111 109 102 101 99 98 100
34 44 37 62 65 69 68 69 37 45 43 91 78 62 101 106 98 106 110 109 102 111 111 110 105 108 100 100 99 95 85 82
58 45 61 63 67 70 44 44 83 53 60 94 91 70 107 111 112 114 51 102 116 113 109 107 96 94 94 95 91 83 83 81
56 60 63 59 73 45 83 79 73 93 97 107 108 107 111 108 114 116 106 120 117 114 109 104 96 92 89 85 82 80 82 81
68 73 79 58 43 57 91 98 96 104 106 109 112 92 83 69 115 113 118 118 118 114 109 103 96 90 85 82 81 82 81 76
51 58 85 57 90 97 68 103 102 108 111 114 113 105 116 115 120 123 122 117 116 110 107 101 95 90 87 85 86 87 77 78
82 38 87 94 95 88 98 103 107 107 109 110 114 113 117 120 90 126 119 119 114 103 101 99 96 93 92 93 90 81 80 81
72 50 97 75 103 95 100 107 107 111 112 118 116 120 122 132 129 122 116 111 105 102 99 99 99 100 75 49 48 63 49 50
96 93 98 96 98 105 106 110 114 118 121 120 118 127 137 129 122 115 110 105 106 106 107 90 56 45 44 45 43 43 45 46
53 97 98 101 103 105 114 117 118 122 120 123 131 140 120 119 116 110 107 109 113 75 60 56 48 45 41 37 38 38 39 41
98 99 101 106 105 114 126 128 131 131 134 137 138 136 117 116 110 111 118 84 71 64 52 50 47 41 41 38 38 37 38 40
101 101 107 103 126 130 130 133 135 141 139 133 120 115 111 114 116 108 81 66 61 55 50 46 43 41 39 39 40 39 39 42
104 104 118 123 127 114 133 137 140 133 127 119 115 112 116 115 82 69 61 56 52 49 46 43 42 41 42 40 39 38 42 42
Wind_Direction
284 279 280 287 283 302 287 306 286 300 298 297 309 307 306 314 310 312 309 309 281 292 304 303 300 298 297 292 292 293 290 285
301 300 299 302 290 291 303 295 296 302 302 302 302 306 305 308 307 304 303 289 301 300 300 301 302 301 301 299 297 294 291 289
293 300 300 303 305 292 297 300 299 293 290 293 297 301 303 305 309 292 306 304 288 305 294 307 305 302 302 297 296 292 289 286
291 296 304 303 301 297 298 304 304 302 289 293 287 312 312 306 307 302 302 303 308 286 308 300 278 301 299 297 295 293 289 287
288 295 299 301 307 309 309 310 313 288 313 313 294 309 311 295 311 307 303 306 305 306 304 302 291 294 275 294 292 290 284 283
314 301 301 304 306 302 311 312 311 310 308 295 309 310 310 302 299 301 299 299 299 296 297 299 298 296 295 294 292 292 288 283
301 300 315 305 308 308 303 311 310 307 306 304 308 305 304 301 299 299 298 297 300 302 303 301 298 296 294 294 289 286 285 283
300 303 312 293 302 298 304 305 310 307 307 301 302 306 299 299 300 303 304 303 304 303 302 301 297 295 295 293 291 289 285 282
301 299 300 298 297 297 321 315 299 313 309 301 303 305 304 305 307 306 301 306 303 302 304 301 297 296 294 294 290 284 284 284
302 301 299 298 300 329 302 303 308 303 304 303 304 306 307 308 305 306 307 304 306 307 302 304 300 297 294 291 287 283 286 287
310 309 308 312 325 315 303 303 303 302 306 307 307 308 311 313 306 306 306 310 308 305 304 303 301 297 295 290 286 282 289 291
306 309 308 313 304 303 317 306 307 307 306 306 307 308 306 305 314 314 311 310 308 305 303 301 298 295 293 289 289 287 291 291
306 313 307 306 308 309 308 306 304 305 308 306 308 313 312 314 313 314 309 308 305 303 300 299 297 296 291 290 286 284 282 279
309 316 312 303 311 309 308 306 305 306 307 312 313 314 313 315 314 310 305 305 303 302 301 298 297 297 292 282 278 282 273 271
310 311 309 310 308 310 305 306 312 312 312 313 315 316 317 312 309 307 307 305 305 303 302 300 296 289 285 283 280 277 273 271
318 308 307 307 312 311 314 313 313 314 314 316 316 316 309 309 310 309 307 305 305 304 304 300 297 293 290 284 280 276 274 273
308 306 308 314 313 316 316 317 316 315 314 316 316 314 312 311 310 309 308 308 307 304 302 300 297 292 292 286 283 283 279 276
312 311 315 310 316 317 316 316 316 315 314 313 312 313 312 311 310 309 309 307 304 302 300 296 293 291 289 289 288 284 279 278
314 313 316 317 316 316 318 316 315 312 313 313 313 313 312 310 313 311 309 308 306 304 301 298 295 292 291 287 283 280 280 276